• In Germany
  • List of Countries
  • For 7 days
  • Water Temperature
  • Satellite Maps
  • Weather Map
  • Weather Widgets
  • user-avatar
    Login

    Hourly Weather Lubango

    Today, 17 August, Thursday

    Time Temperature Precipitation Wind Pressure Humidity
    00:00 +12°C° 0 mm 1 mps 608 mmHg 65%
    01:00 +11°C° 0 mm 0 mps 607 mmHg 64%
    02:00 +11°C° 0 mm 1 mps 607 mmHg 61%
    03:00 +11°C° 0 mm 1 mps 607 mmHg 58%
    04:00 +11°C° 0 mm 1 mps 606 mmHg 55%
    05:00 +12°C° 0 mm 1 mps 607 mmHg 50%
    06:00 +12°C° 0 mm 1 mps 607 mmHg 46%
    07:00 +14°C° 0 mm 1 mps 608 mmHg 41%
    08:00 +18°C° 0 mm 1 mps 609 mmHg 34%
    09:00 +21°C° 0 mm 1 mps 611 mmHg 27%
    10:00 +24°C° 0 mm 1 mps 612 mmHg 20%
    11:00 +26°C° 0 mm 1 mps 612 mmHg 18%
    12:00 +27°C° 0 mm 2 mps 612 mmHg 16%
    13:00 +27°C° 0 mm 2 mps 612 mmHg 19%
    14:00 +26°C° 0 mm 2 mps 611 mmHg 20%
    15:00 +26°C° 0 mm 2 mps 611 mmHg 21%
    16:00 +25°C° 0 mm 3 mps 611 mmHg 22%
    17:00 +21°C° 0 mm 2 mps 610 mmHg 34%
    18:00 +18°C° 0 mm 2 mps 609 mmHg 45%
    19:00 +15°C° 0 mm 2 mps 608 mmHg 57%
    20:00 +14°C° 0 mm 1 mps 608 mmHg 63%
    21:00 +13°C° 0 mm 1 mps 608 mmHg 69%
    22:00 +11°C° 0 mm 0 mps 608 mmHg 76%
    23:00 +11°C° 0 mm 0 mps 608 mmHg 76%

    Tomorrow, 18 August, Friday

    Time Temperature Precipitation Wind Pressure Humidity
    00:00 +10°C° 0 mm 0 mps 607 mmHg 77%
    01:00 +10°C° 0 mm 0 mps 607 mmHg 77%
    02:00 +10°C° 0 mm 0 mps 607 mmHg 75%
    03:00 +9°C° 0 mm 0 mps 607 mmHg 74%
    04:00 +9°C° 0 mm 0 mps 606 mmHg 72%
    05:00 +11°C° 0 mm 1 mps 607 mmHg 66%
    06:00 +11°C° 0 mm 1 mps 607 mmHg 61%
    07:00 +11°C° 0 mm 1 mps 608 mmHg 56%
    08:00 +15°C° 0 mm 1 mps 609 mmHg 44%
    09:00 +19°C° 0 mm 2 mps 611 mmHg 33%
    10:00 +24°C° 0 mm 2 mps 613 mmHg 21%
    11:00 +25°C° 0 mm 2 mps 612 mmHg 18%
    12:00 +27°C° 0 mm 2 mps 612 mmHg 15%
    13:00 +28°C° 0 mm 2 mps 612 mmHg 12%
    14:00 +28°C° 0 mm 2 mps 612 mmHg 13%
    15:00 +27°C° 0 mm 2 mps 611 mmHg 15%
    16:00 +27°C° 0 mm 2 mps 611 mmHg 16%
    17:00 +24°C° 0 mm 2 mps 610 mmHg 25%
    18:00 +19°C° 0 mm 2 mps 609 mmHg 35%
    19:00 +16°C° 0 mm 1 mps 608 mmHg 44%
    20:00 +15°C° 0 mm 1 mps 608 mmHg 49%
    21:00 +14°C° 0 mm 1 mps 608 mmHg 54%
    22:00 +12°C° 0 mm 0 mps 608 mmHg 59%
    23:00 +13°C° 0 mm 1 mps 608 mmHg 58%

    Day after tomorrow, 19 August, Saturday

    Time Temperature Precipitation Wind Pressure Humidity
    00:00 +12°C° 0 mm 1 mps 608 mmHg 57%
    01:00 +12°C° 0 mm 1 mps 607 mmHg 56%
    02:00 +12°C° 0 mm 1 mps 607 mmHg 56%
    03:00 +11°C° 0 mm 1 mps 607 mmHg 55%
    04:00 +11°C° 0 mm 1 mps 607 mmHg 55%
    05:00 +11°C° 0 mm 1 mps 607 mmHg 51%
    06:00 +12°C° 0 mm 1 mps 608 mmHg 47%
    07:00 +12°C° 0 mm 1 mps 608 mmHg 43%
    08:00 +16°C° 0 mm 2 mps 610 mmHg 34%
    09:00 +20°C° 0 mm 3 mps 612 mmHg 24%
    10:00 +25°C° 0 mm 3 mps 613 mmHg 14%
    11:00 +27°C° 0 mm 3 mps 613 mmHg 13%
    12:00 +28°C° 0 mm 3 mps 613 mmHg 11%
    13:00 +30°C° 0 mm 3 mps 613 mmHg 10%
    14:00 +29°C° 0 mm 3 mps 612 mmHg 11%
    15:00 +29°C° 0 mm 3 mps 612 mmHg 13%
    16:00 +28°C° 0 mm 3 mps 611 mmHg 14%
    17:00 +25°C° 0 mm 3 mps 610 mmHg 23%
    18:00 +20°C° 0 mm 2 mps 610 mmHg 33%
    19:00 +17°C° 0 mm 2 mps 609 mmHg 42%
    20:00 +16°C° 0 mm 1 mps 609 mmHg 46%
    21:00 +15°C° 0 mm 1 mps 609 mmHg 50%
    22:00 +14°C° 0 mm 1 mps 609 mmHg 54%
    23:00 +14°C° 0 mm 1 mps 609 mmHg 54%

    20 August, Sunday

    Time Temperature Precipitation Wind Pressure Humidity
    00:00 +13°C° 0 mm 1 mps 609 mmHg 53%
    01:00 +13°C° 0 mm 1 mps 609 mmHg 52%
    02:00 +13°C° 0 mm 1 mps 608 mmHg 50%
    03:00 +13°C° 0 mm 1 mps 608 mmHg 48%
    04:00 +12°C° 0 mm 1 mps 608 mmHg 46%
    05:00 +13°C° 0 mm 1 mps 608 mmHg 43%
    06:00 +13°C° 0 mm 1 mps 609 mmHg 39%
    07:00 +13°C° 0 mm 1 mps 609 mmHg 36%
    08:00 +17°C° 0 mm 2 mps 611 mmHg 28%
    09:00 +21°C° 0 mm 2 mps 613 mmHg 21%
    10:00 +26°C° 0 mm 3 mps 614 mmHg 13%
    11:00 +27°C° 0 mm 3 mps 614 mmHg 12%
    12:00 +29°C° 0 mm 3 mps 614 mmHg 11%
    13:00 +30°C° 0 mm 3 mps 614 mmHg 10%
    14:00 +30°C° 0 mm 3 mps 613 mmHg 11%
    15:00 +29°C° 0 mm 3 mps 613 mmHg 12%
    16:00 +29°C° 0 mm 3 mps 612 mmHg 13%
    17:00 +25°C° 0 mm 3 mps 611 mmHg 20%
    18:00 +21°C° 0 mm 2 mps 610 mmHg 28%
    19:00 +17°C° 0 mm 2 mps 610 mmHg 35%
    20:00 +16°C° 0 mm 1 mps 610 mmHg 38%
    21:00 +15°C° 0 mm 1 mps 610 mmHg 41%
    22:00 +14°C° 0 mm 1 mps 610 mmHg 44%
    23:00 +14°C° 0 mm 1 mps 610 mmHg 45%

    21 August, Monday

    Time Temperature Precipitation Wind Pressure Humidity
    00:00 +13°C° 0 mm 1 mps 609 mmHg 45%
    01:00 +12°C° 0 mm 0 mps 609 mmHg 46%
    02:00 +13°C° 0 mm 1 mps 609 mmHg 46%
    03:00 +12°C° 0 mm 1 mps 609 mmHg 46%
    04:00 +12°C° 0 mm 1 mps 609 mmHg 46%
    05:00 +12°C° 0 mm 1 mps 609 mmHg 44%
    06:00 +13°C° 0 mm 1 mps 609 mmHg 41%
    07:00 +13°C° 0 mm 1 mps 610 mmHg 38%
    08:00 +17°C° 0 mm 2 mps 611 mmHg 32%
    09:00 +21°C° 0 mm 3 mps 613 mmHg 26%
    10:00 +26°C° 0 mm 4 mps 614 mmHg 19%
    11:00 +27°C° 0 mm 4 mps 614 mmHg 18%
    12:00 +28°C° 0 mm 3 mps 614 mmHg 17%
    13:00 +30°C° 0 mm 3 mps 613 mmHg 15%
    14:00 +30°C° 0 mm 3 mps 613 mmHg 16%
    15:00 +29°C° 0 mm 3 mps 612 mmHg 16%
    16:00 +29°C° 0 mm 3 mps 612 mmHg 17%
    17:00 +26°C° 0 mm 3 mps 611 mmHg 23%
    18:00 +23°C° 0 mm 2 mps 610 mmHg 29%
    19:00 +19°C° 0 mm 2 mps 610 mmHg 35%
    20:00 +18°C° 0 mm 2 mps 610 mmHg 37%
    21:00 +18°C° 0 mm 1 mps 610 mmHg 40%
    22:00 +18°C° 0 mm 1 mps 610 mmHg 42%
    23:00 +16°C° 0 mm 1 mps 609 mmHg 43%

    22 August, Tuesday

    Time Temperature Precipitation Wind Pressure Humidity
    00:00 +15°C° 0 mm 1 mps 609 mmHg 44%
    01:00 +15°C° 0 mm 1 mps 609 mmHg 45%
    02:00 +14°C° 0 mm 1 mps 608 mmHg 45%
    03:00 +14°C° 0 mm 1 mps 608 mmHg 44%
    04:00 +14°C° 0 mm 1 mps 608 mmHg 44%
    05:00 +14°C° 0 mm 1 mps 608 mmHg 40%
    06:00 +14°C° 0 mm 2 mps 609 mmHg 37%
    07:00 +15°C° 0 mm 2 mps 609 mmHg 34%
    08:00 +18°C° 0 mm 2 mps 611 mmHg 28%
    09:00 +23°C° 0 mm 2 mps 612 mmHg 21%
    10:00 +27°C° 0 mm 3 mps 613 mmHg 15%
    11:00 +28°C° 0 mm 2 mps 613 mmHg 14%
    12:00 +29°C° 0 mm 2 mps 613 mmHg 13%
    13:00 +30°C° 0 mm 2 mps 613 mmHg 12%
    14:00 +30°C° 0 mm 2 mps 612 mmHg 14%
    15:00 +29°C° 0 mm 3 mps 611 mmHg 16%
    16:00 +28°C° 0 mm 3 mps 611 mmHg 17%
    17:00 +25°C° 0 mm 3 mps 610 mmHg 26%
    18:00 +20°C° 0 mm 2 mps 609 mmHg 35%
    19:00 +17°C° 0 mm 2 mps 608 mmHg 43%
    20:00 +16°C° 0 mm 2 mps 608 mmHg 48%
    21:00 +15°C° 0 mm 1 mps 608 mmHg 52%
    22:00 +14°C° 0 mm 1 mps 608 mmHg 56%
    23:00 +13°C° 0 mm 1 mps 607 mmHg 57%
    Show more